TimeCDT,TemperatureF,Dew PointF,Humidity,Sea Level PressureIn,VisibilityMPH,Wind Direction,Wind SpeedMPH,Gust SpeedMPH,PrecipitationIn,Events,Conditions,WindDirDegrees,DateUTC
12:52 AM,44.1,44.1,100,29.89,0.2,West,8.1,-,N/A,Fog,Fog,270,2013-03-31 05:52:00
1:52 AM,43.0,43.0,100,29.89,0.5,WNW,8.1,-,N/A,Fog,Fog,290,2013-03-31 06:52:00
2:52 AM,41.0,41.0,100,29.89,0.5,WNW,8.1,-,N/A,Fog,Fog,290,2013-03-31 07:52:00
3:52 AM,39.9,39.9,100,29.88,0.2,WNW,4.6,-,N/A,Fog,Fog,300,2013-03-31 08:52:00
4:52 AM,37.0,37.0,100,29.88,0.5,West,4.6,-,N/A,Fog,Fog,280,2013-03-31 09:52:00
5:52 AM,34.0,34.0,100,29.88,0.5,West,4.6,-,N/A,Fog,Fog,280,2013-03-31 10:52:00
6:00 AM,33.8,33.8,100,29.87,1.0,WNW,3.5,-,N/A,,Mist,290,2013-03-31 11:00:00
6:04 AM,33.8,33.8,100,29.87,0.8,West,3.5,-,N/A,,Mist,280,2013-03-31 11:04:00
6:24 AM,35.6,33.8,93,29.87,1.5,NW,6.9,-,N/A,,Scattered Clouds,310,2013-03-31 11:24:00
6:27 AM,35.6,35.6,100,29.87,4.0,NW,6.9,-,N/A,,Scattered Clouds,310,2013-03-31 11:27:00
6:52 AM,36.0,35.1,97,29.88,5.0,NW,6.9,-,N/A,,Clear,310,2013-03-31 11:52:00
7:52 AM,39.0,37.0,93,29.89,5.0,WNW,8.1,-,N/A,,Clear,300,2013-03-31 12:52:00
8:15 AM,37.4,35.6,93,29.88,1.8,West,9.2,-,N/A,,Partly Cloudy,270,2013-03-31 13:15:00
8:20 AM,35.6,35.6,100,29.88,0.8,West,9.2,-,N/A,,Mist,280,2013-03-31 13:20:00
8:33 AM,37.4,35.6,93,29.88,1.2,WNW,9.2,-,N/A,,Mostly Cloudy,290,2013-03-31 13:33:00
8:39 AM,37.4,35.6,93,29.88,3.0,West,10.4,-,N/A,,Overcast,270,2013-03-31 13:39:00
8:52 AM,37.9,36.0,93,29.88,5.0,West,6.9,-,N/A,,Mostly Cloudy,280,2013-03-31 13:52:00
9:07 AM,39.2,37.4,93,29.87,7.0,WNW,6.9,-,N/A,,Scattered Clouds,290,2013-03-31 14:07:00
9:52 AM,43.0,37.0,80,29.88,10.0,WNW,9.2,-,N/A,,Clear,290,2013-03-31 14:52:00
10:52 AM,48.0,37.9,68,29.88,10.0,NNW,15.0,-,N/A,,Partly Cloudy,330,2013-03-31 15:52:00
11:52 AM,46.9,36.0,66,29.89,10.0,NW,11.5,-,N/A,,Clear,310,2013-03-31 16:52:00
12:52 PM,51.1,36.0,56,29.88,10.0,WNW,12.7,-,N/A,,Clear,300,2013-03-31 17:52:00
1:52 PM,53.1,32.0,45,29.88,10.0,WNW,17.3,31.1,N/A,,Partly Cloudy,300,2013-03-31 18:52:00
2:52 PM,52.0,28.9,41,29.88,10.0,NNW,23.0,33.4,N/A,,Partly Cloudy,330,2013-03-31 19:52:00
3:52 PM,51.1,28.9,43,29.90,10.0,NW,21.9,28.8,N/A,,Clear,320,2013-03-31 20:52:00
4:52 PM,46.9,28.9,50,29.91,10.0,NW,19.6,-,N/A,,Clear,320,2013-03-31 21:52:00
5:52 PM,46.0,27.0,47,29.93,10.0,WNW,18.4,28.8,N/A,,Partly Cloudy,300,2013-03-31 22:52:00
6:52 PM,43.0,26.1,51,29.95,10.0,WNW,17.3,26.5,N/A,,Partly Cloudy,300,2013-03-31 23:52:00
7:52 PM,41.0,25.0,53,29.97,10.0,WNW,18.4,28.8,N/A,,Scattered Clouds,300,2013-04-01 00:52:00
8:52 PM,39.9,23.0,51,29.99,10.0,NW,17.3,23.0,N/A,,Overcast,310,2013-04-01 01:52:00
9:52 PM,37.9,23.0,55,30.02,10.0,NW,13.8,25.3,N/A,,Overcast,320,2013-04-01 02:52:00
10:52 PM,36.0,23.0,59,30.04,10.0,NW,15.0,21.9,N/A,,Overcast,310,2013-04-01 03:52:00
11:52 PM,34.0,21.9,61,30.06,10.0,NW,15.0,20.7,N/A,,Partly Cloudy,320,2013-04-01 04:52:00